User: anonymous   Login
Location: Unspecified
(0.0000°N, 0.0000°E)
Time: 10:16:08
(UTC+00:00)
Language:

Transit 2A - Orbit

View from above orbital plane
View from above orbital plane
View from above satellite
View from above satellite

Ground track
Ground track

The orbit data is extracted from the following two-line orbital elements,

1    45U 60007A   19081.55298965 -.00000032 +00000-0 +19017-4 0  9998
2    45 066.6935 134.3853 0262867 284.9268 072.2864 14.33630754000918
Epoch (UTC): 22 March 2019 13:16:18
Eccentricity: 0.0262867
inclination: 66.6935°
perigee height: 591 km
apogee height: 968 km
right ascension of ascending node: 134.3853°
argument of perigee: 284.9268°
revolutions per day: 14.33630754
mean anomaly at epoch: 72.2864°
orbit number at epoch: 91

The dashed part of the orbit path shows where the satellite is in the earth's shadow,  

DLR